[[{"header":{"parameterUnit":"m.s-1","parameterCategory":2,"la1":30.2991,"la2":30.254,"lo1":-89.0895,"lo2":-89.0444,"dy":0.0017,"dx":0.0017,"nx":28,"ny":28,"refTime":"2024-05-01T09:00:00:Z","depth":"0","parameterNumber":2,"parameterNumberName":"U-component_of_CURRENTS"},"data":[0,0,0,0,0,0,0,0,0,0,0,0,0,0,0,0,0,0,0,0,0,0,0,0,0,0,0,0,0,0,0,0,0,0,0,0,0,0,0,0,0,0,0,0,0,0,0,0,0,0,0,0,0,0,0,0,0,0,0.1864,0.1864,0,0.1849,0.1849,0.1848,0.1825,0.1824,0.1824,0.1824,0.1794,0.1793,0.1792,0,0,0,0,0,0,0,0,0,0,0,0,0,0.1852,0.1852,0.1864,0.1864,0.1864,0.1849,0.1849,0.1848,0.1825,0.1824,0.1824,0.1824,0.1794,0.1793,0.1792,0,0,0,0,0,0,0,0,0,0,0,0,0,0.1846,0.1852,0.1864,0.1853,0.1852,0.1849,0.1849,0.1848,0.1825,0.1824,0.1824,0.1824,0.1794,0.1793,0.1792,0.1791,0,0,0.1789,0.1789,0,0,0,0,0,0,0,0,0.1847,0.1847,0.1854,0.1854,0.1853,0.1841,0.1833,0.1829,0.1825,0.1832,0.1824,0.1824,0.181,0.1808,0.1802,0.1789,0.1788,0.1789,0.1788,0.1788,0.1788,0,0,0,0,0,0,0,0.1847,0.1847,0.1855,0.1855,0.1853,0.1842,0.1841,0.1832,0.182,0.1831,0.183,0.1833,0.1809,0.1803,0.1801,0.1788,0.1789,0.1788,0.1788,0.1787,0.1819,0.182,0,0,0,0,0,0,0.1856,0.1848,0.1856,0.1855,0.1852,0.1843,0.1841,0.1843,0.182,0.1818,0.1834,0.1832,0.1804,0.1802,0.18,0.1843,0.1788,0.1787,0.1787,0.1817,0.1819,0.1821,0,0,0,0,0,0,0.1856,0.1857,0.1856,0.1853,0.1853,0.1844,0.1845,0.1842,0.1846,0.1823,0.1819,0.1842,0.1804,0.1801,0.1807,0.184,0.1787,0.1786,0.1816,0.1818,0.182,0.19,0,0,0,0,0,0,0.1856,0.1857,0.1863,0.1854,0.1853,0.187,0.1846,0.1842,0.185,0.1848,0.1829,0.1825,0.1804,0.1809,0.1806,0.1837,0.1785,0.1814,0.1817,0.1819,0.1895,0.1904,0.1912,0,0,0,0,0,0.1855,0.1864,0.1863,0.1865,0.1861,0.1871,0.187,0.186,0.1851,0.1861,0.1847,0.1826,0.1824,0.1809,0.1806,0.1837,0.1812,0.1816,0.1819,0.1892,0.1903,0.1912,0,0,0,0,0,0,0.1859,0.1862,0.1862,0.187,0.1879,0.1869,0.1875,0.1871,0.1867,0.1864,0.1839,0.1835,0.1855,0.1835,0.1819,0.1855,0.1817,0.182,0.1874,0.1884,0.1892,0.1894,0.1784,0,0,0,0,0,0.1865,0.1873,0.1878,0.1887,0.1893,0.1887,0.189,0.1887,0.1883,0.1881,0.187,0.1861,0.1864,0.1865,0.186,0.1875,0.1875,0.1895,0.1904,0.1911,0.1912,0.1945,0.1957,0.1831,0.1831,0.1831,0,0,0.1868,0.1873,0.1876,0.1889,0.1891,0.1904,0.1888,0.19,0.1915,0.1878,0.1894,0.1889,0.1875,0.1896,0.1904,0.1884,0.1951,0.1915,0.1922,0.1918,0.195,0.1962,0.1973,0.1833,0.1833,0.1833,0,0,0.1876,0.1885,0.1893,0.1907,0.1921,0.1922,0.1932,0.1935,0.1942,0.1957,0.1942,0.196,0.1952,0.1959,0.1959,0.2011,0.1995,0.2011,0.2054,0.2088,0.2098,0.2108,0.2142,0.2153,0.2014,0.2015,0.2015,0,0.1878,0.1891,0.1899,0.1915,0.1928,0.1935,0.1951,0.1963,0.197,0.1985,0.1971,0.1991,0.1984,0.2021,0.204,0.2032,0.2044,0.2017,0.21,0.2108,0.2117,0.2149,0.2161,0.2019,0.2018,0.2018,0.2018,0,0.1891,0.1907,0.1917,0.1938,0.1957,0.1975,0.1996,0.2019,0.2027,0.2039,0.2079,0.2075,0.2087,0.2098,0.2082,0.2142,0.2132,0.2108,0.2075,0.2134,0.2165,0.2176,0.2025,0.2023,0.2022,0.2021,0,0,0.1874,0.1917,0.1919,0.1935,0.1973,0.1985,0.2027,0.2065,0.2092,0.2114,0.2153,0.2177,0.2181,0.2182,0.2179,0.2208,0.2286,0.2185,0.2185,0.2221,0.2366,0.2385,0.2398,0.2278,0.228,0.2281,0.2371,0,0.188,0.1909,0.1934,0.1967,0.1984,0.202,0.2056,0.2095,0.2126,0.2167,0.2197,0.2225,0.2213,0.2223,0.2259,0.2274,0.2315,0.2264,0.2301,0.2302,0.2313,0.2411,0.238,0.246,0.2382,0.2384,0.2385,0,0.1877,0.19,0.1929,0.1982,0.1993,0.2015,0.2076,0.2111,0.2179,0.221,0.2258,0.2274,0.2336,0.2306,0.2385,0.2353,0.237,0.238,0.2383,0.2376,0.2341,0.2384,0.2482,0.2446,0.2401,0.24,0.2399,0,0.1846,0.1896,0.1918,0.1935,0.1994,0.2017,0.205,0.2116,0.2156,0.2236,0.2276,0.2341,0.238,0.2415,0.2456,0.2422,0.2537,0.2489,0.2526,0.2527,0.2495,0.249,0.2561,0.2549,0.2549,0.2548,0.2548,0,0.1838,0.1853,0.1901,0.1912,0.1942,0.1993,0.2035,0.2085,0.2163,0.2216,0.2289,0.2347,0.2409,0.2479,0.2493,0.2566,0.2576,0.2561,0.2563,0.2524,0.2521,0.248,0.2443,0.2552,0.2551,0.255,0.255,0,0.1794,0.1828,0.185,0.1907,0.1923,0.194,0.2013,0.2049,0.2135,0.2209,0.224,0.2371,0.2475,0.2543,0.2617,0.2626,0.262,0.2692,0.2649,0.2646,0.2625,0.2593,0.2517,0.2434,0.2746,0.2747,0.2748,0,0.1774,0.178,0.1825,0.1835,0.1856,0.1893,0.1923,0.2016,0.2067,0.2218,0.2258,0.2398,0.2496,0.2649,0.2708,0.278,0.2668,0.2768,0.2696,0.2653,0.2619,0.246,0.2382,0.269,0.269,0.269,0.2691,0,0.1732,0.1742,0.1758,0.1778,0.1802,0.1832,0.1888,0.1922,0.2041,0.2126,0.225,0.2342,0.2547,0.2642,0.277,0.2793,0.2657,0.2777,0.2744,0.2606,0.2424,0.2336,0.2599,0.2694,0.2694,0.2693,0.2693,0.2693,0.1692,0.1685,0.1702,0.1712,0.1738,0.1753,0.1757,0.184,0.191,0.2027,0.2172,0.2314,0.2541,0.2735,0.2739,0.2781,0.2685,0.2731,0.2706,0.2554,0.2443,0.2723,0.281,0.281,0.281,0.2811,0.2811,0,0.164,0.1634,0.1639,0.1645,0.1638,0.1678,0.1722,0.1724,0.1776,0.1959,0.2074,0.233,0.2481,0.2631,0.2794,0.2743,0.2557,0.2673,0.2448,0.238,0.2669,0.2638,0.2678,0.2678,0.2678,0.2678,0.2678,0.2678,0.1615,0.1584,0.1579,0.1537,0.1541,0.1515,0.1517,0.1545,0.1658,0.1817,0.1993,0.216,0.2495,0.2729,0.2769,0.2701,0.2471,0.2384,0.2311,0.2556,0.2558,0.2559,0.2524,0.2539,0.2539,0.1928,0.1924,0.1921]},{"header":{"parameterUnit":"m.s-1","parameterCategory":2,"la1":30.2991,"la2":30.254,"lo1":-89.0895,"lo2":-89.0444,"dy":0.0017,"dx":0.0017,"nx":28,"ny":28,"refTime":"2024-05-01T09:00:00:Z","depth":"0","parameterNumber":3,"parameterNumberName":"V-component_of_CURRENTS"},"data":[0,0,0,0,0,0,0,0,0,0,0,0,0,0,0,0,0,0,0,0,0,0,0,0,0,0,0,0,0,0,0,0,0,0,0,0,0,0,0,0,0,0,0,0,0,0,0,0,0,0,0,0,0,0,0,0,0,0,0.0027,0.0026,0,-0.0041,-0.0042,-0.0043,-0.008,-0.008,-0.008,-0.008,-0.0158,-0.016,-0.0162,0,0,0,0,0,0,0,0,0,0,0,0,0,0.0093,0.0092,0.0027,0.0026,0.0025,-0.0041,-0.0042,-0.0043,-0.008,-0.008,-0.008,-0.008,-0.0158,-0.016,-0.0162,0,0,0,0,0,0,0,0,0,0,0,0,0,0.0049,0.0092,0.0027,-0.0001,-0.0005,-0.0041,-0.0042,-0.0043,-0.008,-0.008,-0.008,-0.008,-0.0157,-0.016,-0.0163,-0.0178,0,0,-0.0172,-0.0173,0,0,0,0,0,0,0,0,0.0051,0.0046,0.0004,0.0,-0.0003,-0.0052,-0.0047,-0.0089,-0.008,-0.0051,-0.008,-0.008,-0.0124,-0.0129,-0.0142,-0.0182,-0.0185,-0.0172,-0.0174,-0.0175,-0.0176,0,0,0,0,0,0,0,0.0054,0.0049,-0.0,0.0003,-0.0001,-0.0021,-0.0027,-0.0055,-0.0086,-0.0054,-0.0056,-0.0064,-0.0126,-0.0139,-0.0144,-0.0187,-0.0172,-0.0175,-0.0177,-0.0178,-0.0241,-0.0241,0,0,0,0,0,0,0.0064,0.0052,0.0002,-0.0002,0.0024,-0.0022,-0.0029,-0.0036,-0.0086,-0.0093,-0.0064,-0.0065,-0.0133,-0.014,-0.0147,-0.0159,-0.0175,-0.0178,-0.018,-0.0241,-0.0241,-0.0241,0,0,0,0,0,0,0.0066,0.0061,0.0005,0.0023,0.0015,-0.0023,-0.0031,-0.0037,-0.0051,-0.0093,-0.0101,-0.0071,-0.0134,-0.0142,-0.0171,-0.0163,-0.0179,-0.0182,-0.0241,-0.0241,-0.0241,-0.019,0,0,0,0,0,0,0.0068,0.0062,0.0061,0.0024,0.0014,-0.001,-0.0031,-0.0039,-0.0056,-0.0059,-0.0102,-0.0109,-0.0135,-0.0166,-0.0174,-0.0167,-0.0184,-0.0241,-0.0241,-0.0241,-0.0191,-0.0188,-0.0185,0,0,0,0,0,0.0071,0.0073,0.0061,0.0055,0.0014,-0.001,-0.0017,-0.0044,-0.0056,-0.0058,-0.009,-0.0108,-0.017,-0.0169,-0.0178,-0.0172,-0.0241,-0.0241,-0.0241,-0.0193,-0.0188,-0.0185,0,0,0,0,0,0,0.0101,0.0068,0.0055,0.0046,0.0022,-0.0016,-0.0021,-0.0042,-0.0069,-0.0071,-0.0111,-0.0121,-0.0142,-0.0165,-0.0163,-0.0189,-0.0207,-0.0208,-0.0168,-0.0164,-0.016,-0.0136,-0.0187,0,0,0,0,0,0.0108,0.0101,0.0066,0.006,0.0051,0.0016,0.0002,-0.0016,-0.0046,-0.0058,-0.009,-0.0121,-0.0148,-0.0162,-0.019,-0.0206,-0.0224,-0.0207,-0.0204,-0.0201,-0.0187,-0.0213,-0.0211,-0.024,-0.024,-0.024,0,0,0.0117,0.0099,0.0095,0.0067,0.0047,0.0041,0.0008,-0.0007,-0.0012,-0.0063,-0.0077,-0.0112,-0.0151,-0.0168,-0.0179,-0.0186,-0.0201,-0.02,-0.0197,-0.0185,-0.0213,-0.021,-0.0207,-0.024,-0.024,-0.024,0,0,0.0141,0.012,0.0124,0.0108,0.0082,0.0061,0.0059,0.0022,0.0008,-0.0017,-0.005,-0.0077,-0.0123,-0.0143,-0.0161,-0.0156,-0.0184,-0.0166,-0.0128,-0.0154,-0.0151,-0.0149,-0.0164,-0.0164,-0.0163,-0.0163,-0.0163,0,0.0156,0.0155,0.0122,0.0124,0.0118,0.0074,0.0082,0.0059,0.0018,0.001,-0.0013,-0.0073,-0.0108,-0.0123,-0.0122,-0.0146,-0.0163,-0.014,-0.0148,-0.0147,-0.0145,-0.0161,-0.0162,-0.016,-0.016,-0.0161,-0.0161,0,0.0182,0.0181,0.0184,0.0173,0.0162,0.016,0.0128,0.0116,0.0088,0.0061,0.0035,-0.0017,-0.0049,-0.0067,-0.0095,-0.0101,-0.0116,-0.0142,-0.0155,-0.0139,-0.0157,-0.0159,-0.0157,-0.0157,-0.0158,-0.0159,0,0,0.0218,0.0207,0.0208,0.0217,0.0189,0.0187,0.018,0.0164,0.0169,0.0117,0.0117,0.006,0.003,0.0009,-0.0031,-0.0054,-0.0066,-0.0088,-0.0091,-0.0095,-0.0115,-0.0125,-0.0128,-0.0095,-0.0095,-0.0095,-0.0129,0,0.0252,0.0273,0.0253,0.0276,0.0286,0.0253,0.0254,0.0232,0.0204,0.0191,0.0134,0.0114,0.0059,0.0047,0.0014,-0.0044,-0.0068,-0.0054,-0.0135,-0.0137,-0.0143,-0.013,-0.0111,-0.0139,-0.0131,-0.0131,-0.0131,0,0.0286,0.0297,0.0324,0.0336,0.0338,0.0341,0.0344,0.0338,0.0305,0.0282,0.0246,0.0201,0.0161,0.011,0.0023,0.0034,-0.0031,-0.0081,-0.0084,-0.0109,-0.015,-0.0156,-0.0143,-0.0289,-0.0133,-0.0133,-0.0133,0,0.0334,0.0349,0.0377,0.0378,0.0379,0.0388,0.0386,0.0365,0.0378,0.0342,0.0346,0.0277,0.0255,0.0163,0.0057,0.004,-0.0038,-0.0078,-0.0147,-0.0148,-0.0155,-0.0157,-0.0285,-0.0135,-0.0135,-0.0135,-0.0135,0,0.0376,0.04,0.0402,0.0417,0.0457,0.0437,0.0469,0.0457,0.0456,0.0481,0.0398,0.041,0.0268,0.0203,0.009,-0.0023,-0.0015,-0.0129,-0.0156,-0.0137,-0.0137,-0.0283,-0.0362,-0.0136,-0.0136,-0.0136,-0.0135,0,0.042,0.0419,0.0456,0.047,0.0479,0.0505,0.0531,0.0559,0.0543,0.0576,0.0573,0.0517,0.0429,0.0288,0.0147,0.0034,-0.016,-0.0127,-0.0089,-0.011,-0.0319,-0.0394,-0.0535,-0.0592,-0.0208,-0.0209,-0.0209,0,0.0444,0.0466,0.0499,0.0526,0.0532,0.0565,0.0593,0.0598,0.0636,0.0648,0.0679,0.0614,0.0583,0.0373,0.016,-0.0033,-0.0168,-0.0146,-0.0181,-0.0319,-0.0424,-0.0484,-0.0525,-0.017,-0.017,-0.017,-0.017,0,0.0492,0.0499,0.0529,0.0584,0.0621,0.0668,0.0712,0.076,0.0773,0.081,0.0854,0.0837,0.0635,0.0451,0.0177,0.0036,-0.0245,-0.0153,-0.031,-0.0411,-0.0469,-0.0539,-0.0157,-0.017,-0.017,-0.017,-0.017,-0.017,0.0528,0.0558,0.0595,0.0648,0.0697,0.0764,0.0812,0.0874,0.095,0.1018,0.0998,0.1015,0.0738,0.0368,0.0134,-0.0261,-0.0269,-0.0375,-0.0455,-0.0503,-0.0562,-0.0174,-0.0213,-0.0213,-0.0213,-0.0213,-0.0213,0,0.0574,0.0606,0.0658,0.0721,0.0781,0.0798,0.089,0.0947,0.1046,0.1137,0.1181,0.1102,0.0732,0.0359,-0.0178,-0.0494,-0.061,-0.0666,-0.0755,-0.0783,-0.0448,-0.0452,-0.0527,-0.0527,-0.0526,-0.0526,-0.0526,-0.0526,0.06,0.0655,0.0678,0.0778,0.0827,0.0913,0.0969,0.1065,0.1157,0.1282,0.1346,0.1369,0.1146,0.0093,-0.0625,-0.0802,-0.1014,-0.1071,-0.1186,-0.0975,-0.0954,-0.0934,-0.0958,-0.1138,-0.1138,-0.1473,-0.1476,-0.1479]}],[{"header":{"parameterUnit":"m.s-1","parameterCategory":2,"la1":30.2991,"la2":30.254,"lo1":-89.0895,"lo2":-89.0444,"dy":0.0017,"dx":0.0017,"nx":28,"ny":28,"refTime":"2024-05-01T09:00:00:Z","depth":"2","parameterNumber":2,"parameterNumberName":"U-component_of_CURRENTS"},"data":[0,0,0,0,0,0,0,0,0,0,0,0,0,0,0,0,0,0,0,0,0,0,0,0,0,0,0,0,0,0,0,0,0,0,0,0,0,0,0,0,0,0,0,0,0,0,0,0,0,0,0,0,0,0,0,0,0,0,0.1802,0.1802,0,0.1793,0.1793,0.1792,0.1778,0.1778,0.1778,0.1778,0.1763,0.1762,0.1762,0,0,0,0,0,0,0,0,0,0,0,0,0,0.178,0.178,0.1802,0.1802,0.1802,0.1793,0.1793,0.1792,0.1778,0.1778,0.1778,0.1778,0.1763,0.1762,0.1762,0,0,0,0,0,0,0,0,0,0,0,0,0,0.1779,0.178,0.1802,0.1796,0.1795,0.1793,0.1793,0.1792,0.1778,0.1778,0.1778,0.1778,0.1763,0.1763,0.1762,0.1759,0,0,0.176,0.176,0,0,0,0,0,0,0,0,0.1779,0.178,0.1797,0.1796,0.1796,0.1789,0.1779,0.1782,0.1778,0.1782,0.1778,0.1778,0.1773,0.1771,0.1766,0.1759,0.1758,0.176,0.176,0.176,0.176,0,0,0,0,0,0,0,0.178,0.178,0.1796,0.1797,0.1796,0.1784,0.1784,0.1779,0.1775,0.1781,0.1781,0.1784,0.1772,0.1767,0.1766,0.1758,0.176,0.176,0.1759,0.1759,0.1801,0.1803,0,0,0,0,0,0,0.1788,0.178,0.1796,0.1796,0.179,0.1785,0.1785,0.1789,0.1776,0.1774,0.1784,0.1783,0.1768,0.1766,0.1765,0.1812,0.176,0.1759,0.1759,0.18,0.1802,0.1803,0,0,0,0,0,0,0.1787,0.1789,0.1797,0.179,0.179,0.1786,0.179,0.1789,0.1797,0.1778,0.1776,0.1795,0.1767,0.1766,0.1779,0.181,0.1759,0.1758,0.1798,0.18,0.1802,0.1874,0,0,0,0,0,0,0.1786,0.1789,0.1798,0.179,0.1791,0.1809,0.1791,0.1789,0.1799,0.1798,0.1787,0.1785,0.1767,0.178,0.1778,0.1808,0.1758,0.1796,0.1799,0.1802,0.187,0.1878,0.1886,0,0,0,0,0,0.1786,0.1795,0.1799,0.1801,0.1803,0.1811,0.181,0.1804,0.18,0.1809,0.1805,0.1786,0.1796,0.178,0.1778,0.1809,0.1795,0.1798,0.1802,0.1866,0.1877,0.1885,0,0,0,0,0,0,0.1788,0.1795,0.1798,0.181,0.1819,0.1809,0.1816,0.1815,0.1818,0.1818,0.18,0.1798,0.1823,0.1806,0.1789,0.183,0.1794,0.1797,0.1844,0.1854,0.1862,0.186,0.1758,0,0,0,0,0,0.1795,0.1806,0.1812,0.1823,0.1829,0.1827,0.1831,0.183,0.183,0.1831,0.1826,0.1824,0.1832,0.1835,0.1835,0.1853,0.1852,0.1873,0.1881,0.1888,0.1887,0.1917,0.1927,0.1814,0.1814,0.1814,0,0,0.1797,0.1805,0.181,0.1825,0.1828,0.184,0.1828,0.184,0.1856,0.1829,0.185,0.1852,0.1844,0.1868,0.1878,0.1859,0.1924,0.1892,0.1898,0.1893,0.1921,0.1932,0.1942,0.1816,0.1816,0.1815,0,0,0.1804,0.1818,0.1827,0.1839,0.1855,0.1857,0.1867,0.1873,0.1883,0.1902,0.1895,0.1917,0.1918,0.1927,0.1929,0.198,0.1966,0.1984,0.2021,0.2051,0.2061,0.2069,0.2098,0.2109,0.1986,0.1987,0.1987,0,0.1807,0.1822,0.1832,0.1846,0.186,0.1869,0.1885,0.1898,0.191,0.1927,0.1918,0.1949,0.1946,0.1984,0.2004,0.1999,0.2011,0.1985,0.2062,0.207,0.2077,0.2105,0.2115,0.199,0.199,0.1989,0.1989,0,0.1817,0.1836,0.1845,0.1868,0.1886,0.1903,0.1925,0.1949,0.1963,0.1976,0.202,0.2023,0.2041,0.2053,0.2042,0.2099,0.209,0.207,0.2037,0.2093,0.2119,0.2128,0.1996,0.1994,0.1993,0.1992,0,0,0.1801,0.1843,0.1846,0.1864,0.1901,0.1913,0.1954,0.1992,0.2019,0.2046,0.2086,0.2115,0.2123,0.2126,0.2128,0.2155,0.2226,0.2138,0.2137,0.2166,0.2298,0.2301,0.2311,0.2221,0.2223,0.2224,0.2302,0,0.1806,0.1835,0.186,0.1894,0.1911,0.1946,0.1982,0.2021,0.2054,0.2096,0.2126,0.2159,0.215,0.2166,0.2197,0.2216,0.2251,0.2206,0.224,0.2241,0.2236,0.2322,0.2157,0.2213,0.2311,0.2312,0.2314,0,0.1804,0.1827,0.1857,0.191,0.1922,0.1944,0.2005,0.2039,0.2106,0.2137,0.2185,0.2204,0.2264,0.2238,0.231,0.2283,0.2299,0.2309,0.2312,0.2292,0.2261,0.217,0.2226,0.2329,0.2328,0.2327,0.2326,0,0.1776,0.1825,0.1849,0.1866,0.1925,0.1949,0.1983,0.2047,0.2086,0.2163,0.2203,0.2265,0.2305,0.2337,0.2375,0.2346,0.2448,0.2407,0.2426,0.2426,0.2279,0.2264,0.2458,0.2458,0.2458,0.2458,0.2457,0,0.1767,0.1785,0.1835,0.1847,0.1881,0.193,0.1973,0.2023,0.2098,0.2148,0.2218,0.2271,0.2332,0.2395,0.2408,0.2465,0.2481,0.2454,0.2455,0.2302,0.2289,0.2371,0.236,0.246,0.246,0.2459,0.2459,0,0.1726,0.1762,0.1787,0.1846,0.1864,0.1884,0.1958,0.1992,0.2076,0.2146,0.2177,0.2296,0.2388,0.245,0.2516,0.2516,0.2556,0.2566,0.2391,0.2371,0.2502,0.2493,0.2594,0.2595,0.2596,0.2596,0.2597,0,0.1708,0.1716,0.1767,0.1779,0.1803,0.1843,0.1874,0.1965,0.2011,0.2153,0.2189,0.2316,0.2395,0.2525,0.2557,0.2611,0.2607,0.2469,0.2385,0.2529,0.252,0.2511,0.2502,0.2219,0.2217,0.2215,0.2213,0,0.1668,0.1682,0.1701,0.1727,0.1755,0.1785,0.1842,0.1874,0.1986,0.2065,0.2173,0.225,0.2409,0.2414,0.2512,0.2503,0.2449,0.243,0.2632,0.222,0.2185,0.2173,0.2175,0.2194,0.2196,0.2197,0.2199,0.2199,0.163,0.1627,0.165,0.1666,0.1695,0.1712,0.1716,0.1791,0.1855,0.1951,0.2079,0.2156,0.2244,0.2323,0.2287,0.2271,0.2425,0.2307,0.2309,0.2314,0.2267,0.2236,0.2246,0.2248,0.225,0.2251,0.2253,0,0.1579,0.158,0.1591,0.1603,0.16,0.1642,0.1683,0.1679,0.172,0.1855,0.1943,0.1876,0.1937,0.2007,0.1983,0.2021,0.1947,0.1918,0.1798,0.1822,0.1843,0.1764,0.1613,0.161,0.1608,0.1605,0,0,0.1555,0.1532,0.1531,0.1499,0.1508,0.1485,0.1486,0.15,0.1576,0.1611,0.1665,0.1859,0.1984,0.1764,0.177,0.1686,0.172,0.1621,0.215,0.2036,0.2051,0.2106,0.2021,0,0,0,0,0]},{"header":{"parameterUnit":"m.s-1","parameterCategory":2,"la1":30.2991,"la2":30.254,"lo1":-89.0895,"lo2":-89.0444,"dy":0.0017,"dx":0.0017,"nx":28,"ny":28,"refTime":"2024-05-01T09:00:00:Z","depth":"2","parameterNumber":3,"parameterNumberName":"V-component_of_CURRENTS"},"data":[0,0,0,0,0,0,0,0,0,0,0,0,0,0,0,0,0,0,0,0,0,0,0,0,0,0,0,0,0,0,0,0,0,0,0,0,0,0,0,0,0,0,0,0,0,0,0,0,0,0,0,0,0,0,0,0,0,0,-0.0066,-0.0067,0,-0.0127,-0.0128,-0.0129,-0.0161,-0.0161,-0.0161,-0.0161,-0.0235,-0.0237,-0.0239,0,0,0,0,0,0,0,0,0,0,0,0,0,-0.0009,-0.001,-0.0066,-0.0067,-0.0067,-0.0127,-0.0128,-0.0129,-0.0161,-0.0161,-0.0161,-0.0161,-0.0235,-0.0237,-0.0239,0,0,0,0,0,0,0,0,0,0,0,0,0,-0.0048,-0.001,-0.0066,-0.0091,-0.0094,-0.0127,-0.0128,-0.0129,-0.0161,-0.0161,-0.0161,-0.0161,-0.0234,-0.0237,-0.024,-0.0256,0,0,-0.0248,-0.025,0,0,0,0,0,0,0,0,-0.0046,-0.005,-0.0086,-0.0089,-0.0092,-0.0137,-0.0135,-0.0172,-0.0161,-0.0135,-0.0161,-0.0161,-0.0204,-0.0209,-0.022,-0.0259,-0.0262,-0.0249,-0.025,-0.0252,-0.0252,0,0,0,0,0,0,0,-0.0043,-0.0048,-0.009,-0.0087,-0.0091,-0.011,-0.0115,-0.0143,-0.0168,-0.0137,-0.014,-0.0147,-0.0205,-0.0217,-0.0222,-0.0263,-0.0249,-0.0251,-0.0253,-0.0254,-0.0315,-0.0315,0,0,0,0,0,0,-0.0034,-0.0045,-0.0088,-0.0092,-0.0069,-0.0111,-0.0117,-0.0122,-0.0168,-0.0175,-0.0147,-0.0148,-0.0212,-0.0218,-0.0225,-0.0238,-0.0252,-0.0254,-0.0256,-0.0315,-0.0315,-0.0315,0,0,0,0,0,0,-0.0033,-0.0037,-0.0086,-0.007,-0.0078,-0.0111,-0.0117,-0.0123,-0.0136,-0.0175,-0.0182,-0.0153,-0.0212,-0.0221,-0.0248,-0.0241,-0.0256,-0.0258,-0.0315,-0.0315,-0.0315,-0.0269,0,0,0,0,0,0,-0.0031,-0.0036,-0.0036,-0.0069,-0.0078,-0.01,-0.0118,-0.0124,-0.014,-0.0143,-0.0183,-0.019,-0.0213,-0.0243,-0.0251,-0.0245,-0.026,-0.0316,-0.0315,-0.0315,-0.0271,-0.0268,-0.0265,0,0,0,0,0,-0.0028,-0.0025,-0.0036,-0.0041,-0.0077,-0.01,-0.0106,-0.013,-0.014,-0.0143,-0.0171,-0.0188,-0.0247,-0.0246,-0.0254,-0.025,-0.0316,-0.0315,-0.0315,-0.0272,-0.0268,-0.0265,0,0,0,0,0,0,-0.0,-0.0029,-0.0042,-0.0048,-0.007,-0.0105,-0.0109,-0.0128,-0.0153,-0.0154,-0.0192,-0.0201,-0.0222,-0.0243,-0.0241,-0.0267,-0.0282,-0.0284,-0.0247,-0.0243,-0.024,-0.0217,-0.0263,0,0,0,0,0,0.0006,0.0001,-0.0031,-0.0035,-0.0044,-0.0076,-0.0089,-0.0105,-0.0133,-0.0144,-0.0173,-0.0202,-0.0228,-0.0241,-0.0267,-0.0284,-0.0302,-0.0285,-0.0282,-0.0279,-0.0267,-0.0294,-0.0292,-0.0314,-0.0314,-0.0314,0,0,0.0016,-0.0001,-0.0004,-0.0029,-0.0047,-0.0053,-0.0084,-0.0097,-0.0102,-0.0148,-0.0162,-0.0194,-0.023,-0.0248,-0.0258,-0.0264,-0.0283,-0.0279,-0.0276,-0.0265,-0.0293,-0.0291,-0.0289,-0.0314,-0.0314,-0.0314,0,0,0.0037,0.002,0.0025,0.0009,-0.0015,-0.0035,-0.0037,-0.0071,-0.0084,-0.0108,-0.0138,-0.0164,-0.0207,-0.0226,-0.0243,-0.0239,-0.0267,-0.0249,-0.0214,-0.024,-0.0238,-0.0237,-0.0256,-0.0257,-0.0245,-0.0245,-0.0245,0,0.0051,0.0052,0.0022,0.0024,0.0018,-0.0022,-0.0016,-0.0037,-0.0076,-0.0084,-0.0105,-0.0161,-0.0194,-0.021,-0.0208,-0.023,-0.0249,-0.0224,-0.0235,-0.0234,-0.0233,-0.0254,-0.0255,-0.0243,-0.0243,-0.0244,-0.0244,0,0.0076,0.0076,0.0079,0.0069,0.0058,0.0056,0.0026,0.0014,-0.0012,-0.0038,-0.0064,-0.0111,-0.0141,-0.0158,-0.0184,-0.0191,-0.0207,-0.0229,-0.0241,-0.0228,-0.0251,-0.0253,-0.024,-0.0241,-0.0241,-0.0242,0,0,0.0109,0.0099,0.0101,0.0109,0.0083,0.0081,0.0074,0.0057,0.006,0.0012,0.0009,-0.0042,-0.0071,-0.009,-0.0127,-0.0149,-0.0166,-0.0181,-0.0184,-0.0194,-0.022,-0.0227,-0.0231,-0.0192,-0.0192,-0.0192,-0.0237,0,0.0139,0.0159,0.0141,0.0162,0.0172,0.0141,0.0141,0.0119,0.0092,0.0077,0.0024,0.0005,-0.0044,-0.0055,-0.0087,-0.0144,-0.0169,-0.0151,-0.0236,-0.0238,-0.0241,-0.0232,-0.0208,-0.0245,-0.024,-0.024,-0.024,0,0.0169,0.018,0.0206,0.0217,0.0219,0.0222,0.0223,0.0216,0.0182,0.0161,0.0126,0.0083,0.0045,-0.0001,-0.0088,-0.0074,-0.0138,-0.0187,-0.019,-0.0211,-0.0249,-0.0259,-0.0249,-0.0244,-0.0244,-0.0244,-0.0243,0,0.0213,0.0227,0.0254,0.0256,0.0257,0.0266,0.0263,0.0241,0.0251,0.0215,0.0218,0.0151,0.0129,0.0041,-0.0062,-0.0075,-0.0157,-0.0193,-0.026,-0.0261,-0.0262,-0.0263,-0.0253,-0.0252,-0.0252,-0.0252,-0.0252,0,0.0251,0.0274,0.0278,0.0293,0.033,0.0311,0.0339,0.0328,0.0323,0.0344,0.0267,0.0273,0.0139,0.0074,-0.0034,-0.0145,-0.014,-0.0245,-0.0271,-0.0246,-0.0245,-0.0263,-0.0264,-0.0254,-0.0254,-0.0253,-0.0253,0,0.0291,0.0292,0.0327,0.0341,0.0351,0.0374,0.0398,0.042,0.0405,0.0432,0.043,0.0369,0.028,0.0147,0.0008,-0.0097,-0.021,-0.0254,-0.021,-0.0231,-0.0306,-0.0303,-0.0334,-0.0334,-0.0335,-0.0335,-0.0336,0,0.0311,0.0334,0.0368,0.0393,0.0401,0.0431,0.0456,0.0458,0.049,0.0496,0.0522,0.0453,0.0414,0.0208,0.0011,-0.0172,-0.0202,-0.0271,-0.0296,-0.029,-0.0313,-0.031,-0.0307,-0.0282,-0.0282,-0.0282,-0.0282,0,0.0352,0.0363,0.0392,0.0447,0.0481,0.0524,0.0563,0.0605,0.0614,0.0645,0.0675,0.0651,0.0452,0.0271,0.0015,-0.011,-0.0241,-0.0275,-0.0279,-0.0263,-0.0245,-0.0266,-0.0265,-0.0281,-0.0281,-0.0281,-0.0282,-0.0282,0.0381,0.0412,0.0451,0.0504,0.055,0.0611,0.0654,0.0706,0.0772,0.0825,0.0797,0.0776,0.0553,0.0242,0.0003,-0.0242,-0.0235,-0.0316,-0.0315,-0.0314,-0.0297,-0.0281,-0.0321,-0.0321,-0.0321,-0.0321,-0.0322,0,0.0414,0.0452,0.0504,0.0566,0.0623,0.0643,0.0724,0.0771,0.0855,0.0916,0.0943,0.0763,0.0552,0.0299,-0.0067,-0.0291,-0.0309,-0.0352,-0.0329,-0.0327,-0.0326,-0.031,-0.0338,-0.0338,-0.0339,-0.034,0,0,0.0431,0.0487,0.0514,0.0613,0.0664,0.0745,0.0795,0.0873,0.0937,0.0995,0.1006,0.0973,0.0661,0.0398,0.0084,-0.0128,-0.0173,-0.0165,-0.0125,-0.006,-0.0056,-0.0277,-0.0247,0,0,0,0,0]}],[{"header":{"parameterUnit":"m.s-1","parameterCategory":2,"la1":30.2991,"la2":30.254,"lo1":-89.0895,"lo2":-89.0444,"dy":0.0017,"dx":0.0017,"nx":28,"ny":28,"refTime":"2024-05-01T09:00:00:Z","depth":"4","parameterNumber":2,"parameterNumberName":"U-component_of_CURRENTS"},"data":[0,0,0,0,0,0,0,0,0,0,0,0,0,0,0,0,0,0,0,0,0,0,0,0,0,0,0,0,0,0,0,0,0,0,0,0,0,0,0,0,0,0,0,0,0,0,0,0,0,0,0,0,0,0,0,0,0,0,0.1128,0.1128,0,0.1178,0.1179,0.1179,0.1227,0.1228,0.1228,0.1229,0.129,0.1291,0.1292,0,0,0,0,0,0,0,0,0,0,0,0,0,0.1063,0.1063,0.1128,0.1128,0.1129,0.1178,0.1179,0.1179,0.1227,0.1228,0.1228,0.1229,0.129,0.1291,0.1292,0,0,0,0,0,0,0,0,0,0,0,0,0,0.1098,0.1064,0.1128,0.116,0.1163,0.1178,0.1179,0.1179,0.1227,0.1228,0.1229,0.123,0.1289,0.1291,0.1292,0.1279,0,0,0.1296,0.1297,0,0,0,0,0,0,0,0,0.1096,0.1101,0.1154,0.1158,0.1162,0.1198,0.1178,0.1214,0.1226,0.1201,0.1229,0.123,0.126,0.1264,0.1269,0.1282,0.1284,0.1296,0.1297,0.1298,0.1298,0,0,0,0,0,0,0,0.1094,0.1099,0.1146,0.1155,0.1159,0.1168,0.1175,0.1185,0.1223,0.1203,0.1207,0.1215,0.1262,0.1268,0.1271,0.1285,0.1296,0.1298,0.1298,0.1299,0.1385,0.1386,0,0,0,0,0,0,0.109,0.1096,0.1145,0.1148,0.1132,0.1169,0.1176,0.1184,0.1223,0.123,0.1214,0.1217,0.1265,0.1269,0.1273,0.135,0.1298,0.1299,0.13,0.1384,0.1385,0.1387,0,0,0,0,0,0,0.1088,0.1094,0.1143,0.1124,0.1131,0.1169,0.1178,0.1185,0.122,0.1231,0.1238,0.1245,0.1266,0.1271,0.1311,0.1349,0.13,0.1301,0.1382,0.1384,0.1386,0.1446,0,0,0,0,0,0,0.1086,0.1093,0.1109,0.1124,0.1132,0.1176,0.1178,0.1185,0.1221,0.1226,0.126,0.1265,0.1267,0.1308,0.1312,0.135,0.1302,0.138,0.1383,0.1385,0.1442,0.145,0.1456,0,0,0,0,0,0.1083,0.1102,0.1109,0.1116,0.115,0.1177,0.1183,0.1212,0.1222,0.1245,0.1267,0.1265,0.1328,0.1311,0.1314,0.1354,0.1379,0.1382,0.1385,0.1439,0.1448,0.1456,0,0,0,0,0,0,0.1085,0.1109,0.1118,0.1144,0.1169,0.1187,0.1215,0.1226,0.1259,0.1274,0.1278,0.1285,0.1335,0.1333,0.1313,0.1387,0.1355,0.1359,0.1395,0.1404,0.1411,0.1417,0.1303,0,0,0,0,0,0.109,0.1115,0.1134,0.116,0.1176,0.1198,0.1217,0.1235,0.126,0.1278,0.1298,0.1322,0.1345,0.1366,0.1383,0.142,0.1423,0.1449,0.1457,0.1463,0.1471,0.1506,0.1517,0.1397,0.1397,0.1397,0,0,0.1097,0.1116,0.113,0.1163,0.1187,0.1215,0.1214,0.1255,0.1284,0.1277,0.1333,0.1347,0.1359,0.1404,0.1427,0.1413,0.15,0.1467,0.1472,0.1477,0.1511,0.1522,0.1533,0.14,0.1399,0.1399,0,0,0.1122,0.1144,0.1173,0.1196,0.1237,0.125,0.1267,0.1299,0.1326,0.1368,0.1375,0.1413,0.1446,0.1467,0.1479,0.1534,0.1533,0.1544,0.1592,0.1627,0.1637,0.1646,0.1668,0.1679,0.1553,0.1553,0.1553,0,0.1132,0.1166,0.1186,0.122,0.1245,0.1268,0.1302,0.1328,0.1371,0.1396,0.1399,0.1464,0.1477,0.1529,0.1554,0.1552,0.1566,0.1558,0.1637,0.1645,0.1654,0.1674,0.1685,0.1556,0.1556,0.1555,0.1555,0,0.1169,0.1206,0.1229,0.1275,0.1304,0.1341,0.1373,0.1413,0.1442,0.1464,0.1528,0.1546,0.1587,0.16,0.1597,0.1665,0.1655,0.1637,0.1614,0.1669,0.1687,0.1698,0.1561,0.156,0.1559,0.1558,0,0,0.1165,0.1239,0.125,0.1279,0.1337,0.1361,0.142,0.1471,0.1511,0.1558,0.1611,0.1659,0.1674,0.1688,0.1695,0.1729,0.18,0.1717,0.1718,0.1738,0.1878,0.1773,0.1774,0.1801,0.1803,0.1804,0.1868,0,0.119,0.1254,0.1288,0.1351,0.1383,0.1426,0.1473,0.1525,0.1568,0.1624,0.1662,0.1712,0.1706,0.1735,0.1772,0.1792,0.183,0.1785,0.1822,0.1823,0.1722,0.1783,0.1811,0.1875,0.1878,0.1879,0.1881,0,0.1209,0.1251,0.1316,0.1386,0.1406,0.1449,0.1526,0.1572,0.165,0.1688,0.1749,0.1774,0.1844,0.1822,0.1899,0.1873,0.1889,0.1896,0.1899,0.1787,0.1737,0.1808,0.1899,0.1897,0.1896,0.1895,0.1893,0,0.1182,0.1267,0.1319,0.1345,0.1427,0.1472,0.152,0.1597,0.1643,0.1735,0.1779,0.185,0.1899,0.1935,0.1964,0.1943,0.2034,0.1999,0.1919,0.1912,0.1959,0.1949,0.2056,0.2056,0.2056,0.2056,0.2055,0,0.1177,0.1221,0.1316,0.1342,0.1406,0.1469,0.154,0.1599,0.1686,0.1737,0.1813,0.1857,0.1933,0.1987,0.1997,0.1993,0.2066,0.194,0.1927,0.1982,0.1974,0.1966,0.1955,0.2058,0.2057,0.2057,0.2057,0,0.1133,0.1199,0.126,0.136,0.1395,0.144,0.1545,0.1589,0.1683,0.1754,0.1791,0.1892,0.1956,0.2014,0.2075,0.2026,0.2034,0.2015,0.2085,0.2071,0.188,0.1871,0.1924,0.1921,0.1919,0.1917,0.1915,0,0.1112,0.1143,0.1258,0.1295,0.1345,0.1423,0.1471,0.1577,0.162,0.1752,0.1775,0.1882,0.1935,0.1939,0.2007,0.203,0.2007,0.1998,0.1926,0.1888,0.187,0.1865,0.186,0.1911,0.191,0.1909,0.1909,0,0.1065,0.112,0.1171,0.125,0.1313,0.1367,0.1446,0.1467,0.1579,0.1683,0.1719,0.1755,0.1827,0.1867,0.1911,0.1918,0.1993,0.197,0.1975,0.1906,0.1872,0.1856,0.1854,0.19,0.1901,0.1902,0.1903,0,0.1028,0.1052,0.113,0.1188,0.126,0.1287,0.1337,0.1387,0.1442,0.1583,0.159,0.17,0.1801,0.1811,0.1845,0.1854,0.1819,0.1751,0.1766,0.1776,0.17,0.1632,0.1587,0,0,0,0,0,0.098,0.1004,0.1057,0.1116,0.1183,0.1223,0.1308,0.1358,0.1465,0.1454,0.1516,0.1571,0.162,0.1679,0.166,0.1789,0.1832,0.176,0.1762,0.185,0.1861,0.1784,0,0,0,0,0,0,0.0948,0.1001,0.1029,0.1042,0.1065,0.1124,0.117,0.1243,0.1242,0.1356,0.1392,0.1484,0.1559,0.1617,0.1632,0.1652,0.1624,0.1836,0.1832,0.1845,0.1854,0.1862,0.1787,0,0,0,0,0]},{"header":{"parameterUnit":"m.s-1","parameterCategory":2,"la1":30.2991,"la2":30.254,"lo1":-89.0895,"lo2":-89.0444,"dy":0.0017,"dx":0.0017,"nx":28,"ny":28,"refTime":"2024-05-01T09:00:00:Z","depth":"4","parameterNumber":3,"parameterNumberName":"V-component_of_CURRENTS"},"data":[0,0,0,0,0,0,0,0,0,0,0,0,0,0,0,0,0,0,0,0,0,0,0,0,0,0,0,0,0,0,0,0,0,0,0,0,0,0,0,0,0,0,0,0,0,0,0,0,0,0,0,0,0,0,0,0,0,0,0.001,0.0009,0,-0.0034,-0.0034,-0.0035,-0.0061,-0.0061,-0.0061,-0.0061,-0.0124,-0.0125,-0.0127,0,0,0,0,0,0,0,0,0,0,0,0,0,0.004,0.004,0.001,0.0009,0.0009,-0.0034,-0.0034,-0.0035,-0.0061,-0.0061,-0.0061,-0.0062,-0.0123,-0.0125,-0.0127,0,0,0,0,0,0,0,0,0,0,0,0,0,0.0015,0.004,0.001,-0.001,-0.0012,-0.0034,-0.0034,-0.0035,-0.0061,-0.0061,-0.0061,-0.0062,-0.0123,-0.0125,-0.0127,-0.0137,0,0,-0.0134,-0.0135,0,0,0,0,0,0,0,0,0.0017,0.0014,-0.0006,-0.0008,-0.0011,-0.0042,-0.0047,-0.007,-0.0061,-0.0042,-0.0061,-0.0062,-0.0098,-0.0103,-0.011,-0.014,-0.0143,-0.0135,-0.0136,-0.0137,-0.0138,0,0,0,0,0,0,0,0.0019,0.0016,-0.0007,-0.0007,-0.001,-0.0027,-0.003,-0.0051,-0.0069,-0.0044,-0.0046,-0.0051,-0.01,-0.0108,-0.0112,-0.0144,-0.0134,-0.0136,-0.0138,-0.0139,-0.0187,-0.0187,0,0,0,0,0,0,0.0025,0.0018,-0.0006,-0.0009,0.0002,-0.0027,-0.0031,-0.0032,-0.0068,-0.0074,-0.0051,-0.0052,-0.0104,-0.0109,-0.0114,-0.013,-0.0137,-0.0139,-0.014,-0.0187,-0.0187,-0.0187,0,0,0,0,0,0,0.0026,0.0024,-0.0004,0.0003,-0.0002,-0.0027,-0.0028,-0.0033,-0.0044,-0.0073,-0.0079,-0.0058,-0.0104,-0.0111,-0.0132,-0.0133,-0.014,-0.0142,-0.0187,-0.0187,-0.0187,-0.0161,0,0,0,0,0,0,0.0027,0.0025,0.0025,0.0004,-0.0002,-0.0017,-0.0028,-0.0033,-0.0047,-0.0049,-0.0081,-0.0087,-0.0105,-0.0128,-0.0134,-0.0136,-0.0144,-0.0188,-0.0187,-0.0187,-0.0162,-0.016,-0.0158,0,0,0,0,0,0.0029,0.0032,0.0026,0.0023,0.0001,-0.0017,-0.0021,-0.004,-0.0047,-0.0051,-0.0071,-0.0086,-0.0131,-0.013,-0.0137,-0.0139,-0.0188,-0.0187,-0.0187,-0.0163,-0.0161,-0.0158,0,0,0,0,0,0,0.0046,0.0029,0.0022,0.002,0.0003,-0.0021,-0.0027,-0.004,-0.0059,-0.0061,-0.0087,-0.0094,-0.0113,-0.0129,-0.0127,-0.0152,-0.0161,-0.0162,-0.014,-0.0138,-0.0137,-0.0122,-0.0146,0,0,0,0,0,0.005,0.0049,0.0028,0.0026,0.0019,-0.0004,-0.0013,-0.0026,-0.0046,-0.0054,-0.0077,-0.0099,-0.0117,-0.0129,-0.0149,-0.0164,-0.0181,-0.017,-0.0168,-0.0166,-0.0159,-0.0186,-0.0186,-0.0186,-0.0186,-0.0186,0,0,0.0057,0.0047,0.0046,0.0029,0.0016,0.001,-0.001,-0.0023,-0.0028,-0.0058,-0.0072,-0.0095,-0.012,-0.0135,-0.0145,-0.0149,-0.0175,-0.0166,-0.0164,-0.0158,-0.0186,-0.0186,-0.0186,-0.0186,-0.0186,-0.0186,0,0,0.0068,0.006,0.0062,0.005,0.0031,0.0018,0.0015,-0.001,-0.0021,-0.0038,-0.0058,-0.008,-0.0112,-0.0127,-0.0139,-0.0139,-0.0164,-0.0147,-0.0127,-0.0154,-0.0155,-0.0155,-0.0176,-0.0179,-0.0146,-0.0146,-0.0146,0,0.0076,0.0077,0.0059,0.0057,0.0053,0.0024,0.0027,0.0011,-0.0018,-0.0024,-0.0039,-0.0081,-0.0106,-0.012,-0.012,-0.0135,-0.0152,-0.0134,-0.0152,-0.0153,-0.0153,-0.0175,-0.0178,-0.0144,-0.0145,-0.0145,-0.0145,0,0.0087,0.0089,0.0089,0.0081,0.0073,0.007,0.0049,0.0039,0.002,0.0001,-0.0021,-0.0055,-0.0078,-0.0092,-0.0107,-0.0122,-0.0133,-0.0147,-0.0157,-0.0152,-0.0175,-0.0179,-0.0143,-0.0143,-0.0143,-0.0144,0,0,0.0103,0.0099,0.01,0.0107,0.0088,0.0086,0.0079,0.0066,0.0066,0.0029,0.0024,-0.0016,-0.0038,-0.0052,-0.0077,-0.0101,-0.0126,-0.0123,-0.0125,-0.0141,-0.0183,-0.0177,-0.018,-0.0145,-0.0146,-0.0146,-0.0197,0,0.0118,0.0131,0.0121,0.0135,0.0141,0.0122,0.0122,0.0105,0.0085,0.0071,0.003,0.0014,-0.0021,-0.0029,-0.0061,-0.0106,-0.0134,-0.0111,-0.0186,-0.0188,-0.0182,-0.0184,-0.0147,-0.0199,-0.02,-0.0201,-0.0201,0,0.0131,0.014,0.0159,0.0172,0.0173,0.0176,0.0177,0.0172,0.0144,0.0127,0.0098,0.0066,0.0029,-0.0002,-0.0082,-0.0065,-0.012,-0.016,-0.0163,-0.0167,-0.0189,-0.0206,-0.0208,-0.0208,-0.0207,-0.0207,-0.0206,0,0.0156,0.0168,0.019,0.0192,0.0197,0.0205,0.0205,0.0188,0.0196,0.0165,0.0165,0.0107,0.0087,0.0011,-0.0074,-0.0079,-0.0162,-0.0183,-0.023,-0.0231,-0.0233,-0.0232,-0.0242,-0.0242,-0.0242,-0.0242,-0.0242,0,0.0175,0.0192,0.0205,0.0217,0.0246,0.0236,0.0257,0.025,0.0246,0.0258,0.0198,0.0196,0.0089,0.0029,-0.0058,-0.015,-0.0155,-0.0223,-0.0243,-0.0221,-0.0218,-0.0235,-0.0234,-0.0244,-0.0244,-0.0243,-0.0243,0,0.0194,0.0202,0.023,0.0249,0.0259,0.0278,0.0302,0.0317,0.0307,0.0324,0.0321,0.0264,0.0183,0.0076,-0.0045,-0.0119,-0.0213,-0.0248,-0.0206,-0.0223,-0.0269,-0.0266,-0.0305,-0.0305,-0.0305,-0.0305,-0.0305,0,0.0202,0.022,0.0258,0.0281,0.0291,0.0318,0.034,0.0346,0.0366,0.0366,0.038,0.0317,0.0261,0.0105,-0.0023,-0.0187,-0.0214,-0.0265,-0.0277,-0.026,-0.0275,-0.0272,-0.0268,-0.0305,-0.0306,-0.0306,-0.0306,0,0.0218,0.0234,0.026,0.0311,0.0343,0.0381,0.0413,0.0437,0.0447,0.0445,0.0439,0.0355,0.0262,0.0121,-0.0004,-0.0126,-0.0233,-0.0268,-0.0269,-0.028,-0.0262,-0.0276,-0.0272,-0.0306,-0.0306,-0.0306,-0.0306,0,0.0228,0.0252,0.029,0.0336,0.0384,0.0429,0.0443,0.047,0.0492,0.0496,0.0492,0.0388,0.0327,0.0153,0.0036,-0.008,-0.0119,-0.0162,-0.0169,-0.017,-0.0122,-0.0078,-0.0078,0,0,0,0,0,0.023,0.0263,0.031,0.0362,0.0414,0.0443,0.0489,0.0498,0.0512,0.0522,0.0513,0.0428,0.0261,0.0185,0.0071,0.0011,-0.0154,-0.0129,-0.0211,-0.0309,-0.0309,-0.0275,0,0,0,0,0,0,0.0229,0.0277,0.0309,0.0378,0.0419,0.0475,0.0507,0.0518,0.0522,0.0522,0.0438,0.0398,0.0234,0.0333,0.007,0.0032,-0.0036,-0.0208,-0.0211,-0.031,-0.0309,-0.0309,-0.0273,0,0,0,0,0]}]]